CAPE
116 980 1270 1536 1564 1238 1124 1215 1015 506 415 248 279 697 1041 1134 958 1090 1002 1053 1257 1087 1112 1119 1120 1394 1486 1566 1068 734 778 283 191 223 393 848 1098 1212 920 964 943 840 961
110 1003 1295 1480 1525 1271 1030 1126 1109 914 801 539 527 730 1248 914 820 1156 1429 1439 1321 891 1060 1196 1309 1379 1484 1355 1165 603 244 973 1138 1032 774 755 881 538 291 543 1018 1179 1046
108 978 1541 1597 1579 1457 1245 1022 1190 1004 1069 1158 974 932 1402 1352 1187 1317 1246 1584 1733 1714 1538 1370 1118 1168 996 495 696 299 388 876 697 1111 933 556 806 943 926 768 370 739 1102
365 1004 1587 1579 1603 1512 1357 927 905 895 1037 1044 1208 994 1162 1334 1317 1240 1334 1285 1519 1415 1377 1663 1287 1639 1451 862 567 1131 983 791 862 859 699 761 674 618 817 650 1140 935 756
628 1002 1681 1754 1602 1690 1612 1404 1115 1018 1237 1117 1151 1063 1546 1684 1767 1710 1626 1327 1200 1075 1214 1245 1501 1440 1338 1336 1012 656 464 788 767 117 258 129 64 166 1071 744 870 1151 1136
715 1128 1787 1702 1695 1737 1544 1472 1326 1182 1283 1243 1104 1311 1536 1680 1668 1518 1528 1657 1486 1307 1212 1294 1555 1380 991 753 344 160 224 406 477 197 0 61 626 695 693 659 412 683 859
731 1498 1735 1830 1686 1697 1683 1617 1548 1543 1522 1514 723 1220 1458 1784 1777 1786 1647 1571 1647 1521 1359 1397 1689 1051 880 809 578 448 327 395 105 0 0 547 882 1322 1077 877 433 777 840
836 1621 1745 1872 2018 1681 1677 1669 1586 1553 1537 1480 1034 911 1461 1708 1612 1781 1860 1757 1847 1744 1707 1298 1101 663 620 686 348 136 252 833 638 0 48 496 1065 684 544 763 628 180 9
1266 1549 1780 1791 1898 1843 1871 1558 1615 1534 1656 1653 1441 1484 1384 1379 1560 1858 1387 1536 1432 1480 1758 1608 1477 925 222 697 224 179 562 1312 172 0 228 581 1147 787 151 10 286 227 25
1284 1582 1589 1672 1677 1749 1767 1811 1847 1823 1642 1665 1585 1201 1330 1312 1580 1658 1562 1325 1754 1709 1341 1435 1144 1045 258 474 7 232 382 757 473 160 160 713 1228 874 174 469 567 177 457
1504 1514 1498 1429 1502 1570 1720 1714 1968 2056 1760 1493 1547 1553 1730 1433 1600 1731 1411 1610 1550 1541 1532 1617 980 852 265 98 65 523 371 182 420 393 242 586 1117 606 258 1075 962 1016 1029
1182 1480 1420 1463 1372 1439 1590 1916 1624 1731 1749 1561 1339 1466 1480 1221 1308 1431 1322 1291 1543 1708 1387 1730 1180 684 515 131 148 324 305 337 244 322 127 218 620 233 25 0 172 100 183
980 1335 1420 1395 1356 1369 1347 1577 1586 1433 1570 1541 1508 1355 1033 945 1007 1269 1413 1430 1259 1665 1433 1499 1517 825 364 263 170 272 403 50 31 253 161 114 362 597 267 2 0 0 164
765 938 1224 1229 1235 1372 1524 1412 1358 1419 1352 1528 1437 1510 1136 896 1113 1131 1312 1229 1052 1065 860 1178 954 742 249 190 289 398 310 155 82 12 174 4 365 1142 1151 573 104 6 0
679 726 871 1036 1136 1173 1346 1311 1182 1170 1262 1066 926 1039 1108 1155 1243 1054 1075 1180 982 636 491 735 715 508 187 120 241 124 100 87 195 3 0 83 332 762 1269 954 449 209 70
880 861 831 709 967 1083 1236 922 1051 1124 1011 1133 1083 1134 1283 1051 994 779 935 1072 984 651 294 246 408 620 479 283 143 114 56 163 243 258 0 178 475 566 892 840 669 284 133
976 1068 868 719 723 937 1013 725 703 916 1074 1282 1116 961 1321 1239 948 323 660 955 1117 868 558 402 476 655 648 349 237 145 59 44 601 378 56 228 499 548 797 940 911 559 316
1034 977 839 944 695 778 1012 1021 814 1009 1135 1185 1097 946 837 1195 1257 1040 926 967 858 946 748 749 674 610 552 346 299 188 17 7 159 774 470 389 564 791 898 855 986 831 501
1215 1062 924 937 843 834 1031 1368 1196 1305 1198 1151 1281 1183 1137 862 1327 1357 1253 998 716 628 808 687 681 591 375 269 438 278 153 19 18 123 492 828 494 798 981 1001 1070 830 791
1241 1306 1156 1035 1025 1052 1086 1410 1330 1400 1568 1441 1355 1435 1444 1119 1224 1280 1221 885 737 598 953 763 589 478 182 188 338 181 159 66 1 18 63 208 664 866 931 882 1097 982 827
1001 1593 1527 1452 1175 1202 1254 1152 1136 1328 1370 1334 1316 1532 1464 1338 1205 987 908 958 785 712 821 732 589 308 139 136 73 81 129 60 9 0 0 19 140 425 764 746 904 804 691
1129 1286 1708 1833 1697 1428 1420 1383 1404 1380 1267 1290 1353 1234 1588 1373 1230 1202 836 866 899 802 849 853 582 339 171 167 183 142 103 55 42 23 0 0 0 75 306 586 724 829 738
1476 1485 1769 1682 2122 1952 1771 1540 1392 1345 1354 1049 1119 1162 1339 1565 1323 1247 1000 758 744 622 515 500 705 392 256 175 292 146 141 103 12 7 1 0 0 0 11 112 432 730 730
1052 2071 2108 2110 2005 2139 1933 1635 1557 1432 1384 1324 1020 1015 1215 1425 1399 1274 1015 825 653 733 838 788 629 503 318 150 80 154 0 6 43 3 62 72 45 32 23 64 365 873 1012
240 1469 1892 2354 2304 1940 1766 1652 1414 1220 1448 1369 1143 1117 925 1221 1303 1293 1190 979 678 560 682 654 753 605 436 231 81 59 42 10 11 28 10 0 164 186 65 18 0 0 386
379 603 1694 1630 1670 1940 1867 1678 1639 1531 1272 1122 1147 1080 979 989 1242 1265 1268 1107 877 575 465 550 677 663 492 388 300 199 70 58 45 37 21 11 0 114 274 168 107 122 74
CIN
-50 -2 -1 -0 -0 -0 -0 -0 -1 -3 -11 -21 -17 -9 -3 -1 -6 -4 -7 -6 -3 -4 -0 -0 -0 -0 -0 -0 -1 -4 -1 -23 -28 -19 -6 -0 -0 -0 -0 -0 -0 -1 -0
-110 -2 -1 -0 -0 -0 -2 -1 -0 -0 -1 -7 -7 -7 -0 -13 -18 -6 -4 -3 -2 -6 -3 -0 -0 -0 -3 -0 -0 -3 -20 -0 -1 -0 -0 -0 -0 -0 -17 -4 -0 -0 -0
-90 -2 -0 -1 -0 -0 -0 -0 -0 -0 -0 -0 -2 -3 -0 -1 -7 -9 -10 -3 -0 -0 -0 -1 -7 -0 -0 -14 -2 -17 -9 -6 -4 -6 -4 -8 -2 -0 -0 -0 -19 -0 -0
-59 -13 -0 -0 -0 -0 -0 -8 -6 -0 -0 -0 -0 -5 -9 -4 -3 -2 -4 -6 -1 -0 -3 -0 -5 -0 -0 -2 -8 -0 -0 -2 -3 -4 -12 -5 -2 -1 -0 -3 -0 -0 -0
-50 -28 -0 -0 -0 -0 -0 -0 -0 -0 -0 -0 -0 -8 -0 -0 -0 -0 -0 -7 -7 -11 -3 -12 -5 -0 -0 -0 -5 -8 -12 -4 -4 -22 -28 -62 -13 -44 -0 -2 -0 -0 -0
-64 -26 -0 -0 -0 -0 -0 -0 -0 -1 -0 -0 -0 -0 -0 -0 -0 -1 -0 -0 -4 -7 -12 -8 -5 -5 -15 -21 -28 -35 -23 -8 -19 -47 -0 -50 -30 -8 -4 -1 -10 -0 -0
-97 -18 -1 -0 -0 -0 -0 -0 -0 -0 -0 -0 -27 -2 -1 -0 -0 -0 -0 -0 -0 -1 -8 -4 -3 -21 -27 -26 -32 -23 -19 -15 -89 -0 -0 -42 -24 -0 -0 -0 -14 -5 -2
-139 -35 -8 -0 -0 -0 -0 -0 -0 -0 -0 -1 -20 -22 -0 -0 -1 -0 -0 -0 -0 -0 -0 -12 -20 -38 -40 -38 -46 -54 -37 -16 -26 -0 -57 -59 -28 -40 -43 -9 -9 -59 -67
-111 -70 -27 -12 -0 -0 -0 -1 -0 -0 -0 -0 -2 -4 -6 -6 -5 -1 -5 -4 -1 -1 -0 -0 -10 -32 -67 -46 -52 -51 -29 -14 -71 -0 -71 -65 -32 -52 -92 -19 -61 -55 -121
-122 -91 -67 -26 -17 -9 -2 -1 -0 -0 -0 -0 -0 -8 -9 -11 -6 -1 -4 -11 -0 -1 -5 -1 -29 -35 -69 -59 -4 -59 -28 -32 -49 -70 -75 -51 -29 -46 -101 -66 -48 -73 -27
-68 -88 -90 -86 -61 -41 -17 -3 -0 -0 -0 -0 -0 -0 -0 -2 -3 -1 -10 -4 -8 -9 -0 -1 -39 -51 -79 -87 -80 -51 -40 -58 -45 -58 -85 -70 -35 -72 -97 -31 -29 -9 -0
-110 -67 -77 -87 -98 -70 -35 -6 -15 -6 -1 -2 -10 -4 -10 -25 -33 -23 -12 -13 -4 -0 -8 -0 -31 -61 -76 -95 -86 -71 -49 -61 -71 -75 -107 -101 -61 -89 -129 -0 -103 -84 -94
-161 -98 -86 -87 -97 -95 -92 -58 -41 -50 -23 -14 -12 -26 -54 -57 -54 -35 -23 -22 -29 -2 -15 -12 -18 -60 -97 -88 -84 -75 -56 -82 -83 -93 -86 -116 -69 -53 -87 -17 -0 -0 -103
-207 -169 -128 -119 -115 -87 -68 -87 -84 -65 -65 -32 -38 -33 -65 -97 -57 -57 -44 -57 -67 -53 -77 -34 -51 -68 -103 -104 -83 -60 -58 -55 -91 -118 -66 -90 -85 -40 -43 -66 -123 -17 -0
-221 -224 -190 -145 -127 -120 -85 -82 -92 -96 -87 -108 -108 -95 -92 -79 -66 -54 -65 -63 -87 -129 -122 -66 -66 -87 -126 -123 -92 -71 -56 -76 -80 -120 -0 -79 -93 -67 -44 -51 -79 -123 -156
-238 -229 -207 -215 -145 -130 -102 -134 -112 -96 -117 -95 -92 -85 -87 -101 -106 -113 -80 -55 -50 -131 -156 -134 -91 -79 -86 -98 -102 -82 -91 -50 -52 -65 -0 -87 -84 -80 -64 -74 -82 -120 -168
-239 -260 -243 -227 -219 -149 -123 -150 -145 -105 -79 -57 -81 -98 -80 -81 -86 -150 -94 -53 -54 -108 -115 -107 -80 -57 -63 -85 -82 -78 -85 -100 -35 -57 -71 -82 -74 -88 -80 -77 -79 -93 -124
-207 -229 -276 -220 -268 -216 -127 -110 -126 -80 -52 -58 -65 -76 -98 -78 -62 -72 -86 -65 -89 -91 -80 -65 -67 -71 -68 -83 -56 -73 -134 -186 -51 -36 -52 -68 -80 -82 -81 -81 -81 -80 -100
-209 -202 -217 -206 -229 -214 -171 -89 -85 -56 -52 -46 -54 -66 -72 -97 -71 -51 -68 -85 -101 -105 -87 -88 -78 -78 -74 -79 -37 -54 -54 -217 -149 -69 -40 -42 -69 -70 -70 -69 -80 -84 -88
-151 -149 -161 -167 -157 -160 -135 -80 -77 -47 -32 -33 -41 -53 -65 -77 -83 -76 -76 -92 -92 -103 -61 -75 -93 -108 -168 -105 -39 -64 -49 -103 -44 -156 -113 -47 -51 -52 -67 -59 -68 -88 -88
-166 -111 -110 -112 -151 -113 -90 -91 -78 -53 -37 -26 -50 -42 -64 -75 -82 -90 -93 -66 -75 -84 -87 -77 -88 -136 -182 -145 -134 -127 -102 -129 -173 -0 -0 -104 -63 -41 -44 -67 -76 -86 -78
-115 -65 -72 -106 -110 -130 -105 -81 -65 -54 -52 -40 -38 -43 -48 -59 -77 -74 -91 -82 -59 -49 -51 -47 -71 -96 -136 -110 -77 -67 -75 -88 -116 -127 -0 -0 -7 -97 -47 -49 -63 -67 -74
-48 -66 -73 -81 -93 -91 -85 -98 -93 -72 -53 -53 -48 -75 -49 -48 -62 -61 -88 -90 -73 -72 -80 -79 -50 -77 -108 -88 -47 -58 -45 -88 -119 -67 -34 -0 -0 -0 -138 -74 -53 -75 -75
-87 -51 -45 -65 -60 -83 -70 -86 -68 -49 -48 -59 -65 -54 -55 -42 -49 -64 -73 -94 -89 -75 -49 -49 -58 -73 -85 -101 -86 -76 -0 -88 -101 -23 -103 -73 -98 -111 -98 -87 -44 -48 -52
-183 -50 -53 -44 -30 -19 -24 -32 -21 -12 -21 -27 -21 -34 -61 -49 -55 -58 -68 -73 -91 -101 -84 -84 -56 -52 -70 -75 -102 -92 -79 -122 -111 -102 -132 -8 -96 -126 -126 -102 -0 -0 -65
-190 -123 -58 -49 -31 -25 -25 -22 -16 -12 -20 -24 -16 -28 -34 -54 -42 -48 -59 -64 -65 -90 -107 -100 -74 -57 -51 -44 -51 -55 -84 -90 -106 -102 -128 -136 -7 -87 -88 -80 -80 -74 -96
Wind_Speed
27 27 21 22 19 21 21 21 19 20 20 20 20 21 23 21 20 20 16 11 11 10 16 15 14 10 6 6 9 9 14 23 27 30 31 32 32 32 31 31 31 30 30
29 27 23 21 20 18 17 21 19 20 19 19 18 18 20 20 16 14 12 13 13 13 13 13 14 11 8 7 14 14 25 30 29 25 28 30 30 30 30 30 30 30 29
28 29 25 23 23 21 19 19 18 19 20 18 17 18 17 17 15 14 13 11 13 15 12 8 11 10 10 8 13 20 24 29 26 20 17 23 30 30 30 29 29 29 28
31 30 28 26 25 24 21 20 18 21 20 16 15 17 16 15 16 13 11 10 10 13 13 8 5 8 9 8 8 16 21 28 23 18 15 29 29 29 28 29 28 28 28
32 31 29 28 27 26 25 23 22 22 18 13 11 14 13 11 10 10 10 10 8 10 10 9 4 5 5 8 4 3 10 28 25 1 22 23 26 28 28 27 27 27 27
32 31 30 29 29 30 28 27 26 24 21 17 11 9 9 8 8 10 7 9 9 10 9 9 5 4 6 3 2 9 12 16 16 23 25 24 25 27 27 26 26 26 26
32 31 31 31 30 30 30 29 28 26 22 21 12 9 6 6 5 4 9 9 9 9 10 8 5 5 5 3 4 11 11 13 9 23 25 22 24 24 26 26 25 25 25
32 31 31 31 31 30 30 30 29 27 23 21 13 7 6 2 3 4 5 5 6 6 8 7 7 12 7 5 8 9 10 13 14 24 24 20 22 22 24 24 24 24 24
31 30 30 30 30 30 29 29 28 27 24 21 17 11 6 3 2 4 4 6 7 8 7 7 11 14 14 13 13 11 13 12 18 21 22 18 21 21 22 23 23 23 23
30 30 29 29 28 28 28 28 28 27 25 21 16 12 10 4 3 4 6 6 11 9 9 9 12 14 18 16 18 12 13 9 5 16 22 18 19 19 20 22 22 22 22
29 29 29 28 27 27 26 26 26 25 25 24 22 15 9 3 3 4 8 6 11 9 11 9 12 14 18 15 19 16 16 16 13 21 20 19 18 18 19 20 20 21 21
28 28 28 27 27 26 25 24 23 23 22 22 22 20 16 10 4 5 9 8 7 8 11 11 12 14 16 15 20 19 19 20 19 21 17 18 16 17 18 18 19 20 20
26 26 26 26 25 25 24 24 22 21 20 20 20 18 14 10 3 10 12 10 8 8 10 15 12 14 17 18 21 20 21 21 21 18 7 16 16 15 17 16 16 17 17
23 23 24 25 25 24 22 22 22 20 19 18 19 17 14 11 1 12 11 7 8 7 7 4 12 15 19 22 24 23 21 23 22 8 11 15 16 15 16 16 14 14 14
22 22 22 23 23 22 22 21 20 20 18 17 18 16 16 14 5 11 11 9 12 6 3 9 16 17 21 22 26 24 22 13 7 7 7 14 15 14 13 15 13 12 13
20 20 21 22 21 21 21 21 20 19 18 17 18 17 17 16 16 9 11 9 13 14 13 11 19 21 23 19 27 28 17 6 5 8 8 11 14 12 12 12 13 11 11
19 17 19 20 20 20 20 21 19 18 17 17 17 18 17 18 18 6 6 6 12 20 15 15 23 27 28 24 26 26 18 12 10 6 6 6 9 14 12 11 11 11 9
14 16 14 17 18 18 18 18 19 17 17 17 16 17 17 16 19 11 12 16 6 13 19 19 21 21 24 22 17 22 24 17 10 3 4 5 7 6 10 11 11 9 10
14 13 13 14 15 16 15 15 16 17 17 16 15 16 17 16 16 18 17 16 4 12 13 22 22 20 21 27 22 24 28 29 17 2 5 6 10 10 5 9 11 12 11
14 14 15 14 14 12 13 12 12 14 14 16 16 15 16 17 17 15 19 27 11 9 7 17 19 10 24 27 23 22 29 32 32 28 5 4 4 8 3 2 3 8 12
14 12 14 15 15 11 9 10 10 12 13 13 14 15 15 17 15 16 14 16 17 14 11 20 32 22 27 24 18 30 31 29 34 36 37 17 8 6 5 4 3 3 5
13 11 13 13 11 11 10 10 7 9 9 10 9 12 13 15 17 15 15 14 12 9 15 9 7 20 9 15 14 22 29 30 27 21 19 15 27 7 7 6 6 8 9
9 10 10 9 7 9 8 3 3 5 7 8 12 9 10 12 15 17 17 15 14 12 11 12 12 10 16 20 14 18 20 26 25 20 19 12 13 13 9 7 8 8 10
16 13 3 3 5 5 5 5 6 8 9 12 14 14 13 13 13 15 17 18 17 13 13 12 15 15 17 13 24 21 25 20 21 24 22 23 26 19 16 15 14 6 5
20 20 16 8 6 4 7 7 8 10 11 12 13 15 16 15 16 16 15 16 18 15 14 13 14 14 15 19 17 20 19 25 28 26 28 28 25 25 17 16 15 20 18
19 21 19 15 14 12 14 14 12 12 15 18 17 16 19 22 20 20 19 18 18 18 18 17 16 17 17 16 19 20 16 23 24 26 28 30 31 27 23 22 23 24 22
Wind_Direction
120 116 94 94 87 88 88 87 86 89 92 95 96 95 97 99 95 86 78 76 71 65 66 65 59 54 53 52 49 48 56 72 81 90 126 124 118 105 101 100 102 105 101
116 112 99 94 91 87 86 89 89 89 91 96 97 97 99 99 95 83 75 74 68 64 61 61 57 51 49 49 57 58 80 94 88 75 139 131 128 116 105 107 101 103 99
112 116 101 96 95 91 88 90 88 91 94 98 101 100 98 98 92 83 76 72 66 61 53 43 48 49 49 48 57 72 79 90 81 64 55 131 124 114 105 99 102 104 98
115 114 104 100 97 96 93 93 91 96 97 98 106 103 100 95 87 78 71 66 57 54 50 33 20 40 47 51 56 69 75 95 72 60 172 102 111 111 113 105 103 106 106
116 114 109 105 103 101 97 95 98 99 94 101 116 105 98 94 84 75 68 62 46 43 35 30 359 26 43 53 47 208 57 116 138 200 132 79 96 114 115 107 109 113 113
118 116 113 109 109 109 105 103 103 103 99 99 110 113 101 91 81 71 56 52 41 37 30 22 5 19 44 25 278 215 206 189 195 143 102 95 97 106 119 118 112 116 120
117 117 117 116 113 115 113 111 111 109 104 103 108 108 109 91 76 47 53 41 36 35 34 23 330 263 34 14 261 222 222 208 222 95 106 93 99 99 115 118 120 115 113
118 118 118 120 118 119 120 118 116 116 109 107 107 113 98 88 51 32 280 352 351 334 20 3 297 241 264 271 244 244 235 222 220 116 113 91 100 101 111 123 121 121 118
119 119 122 122 124 124 122 122 122 121 117 112 108 104 99 76 17 1 3 295 316 321 342 335 265 244 243 238 234 242 229 242 98 111 118 90 105 105 112 121 127 126 124
121 124 125 127 127 126 126 124 128 128 126 118 109 106 102 82 38 307 300 304 275 313 310 314 274 257 234 238 225 249 241 265 346 97 136 115 111 109 112 122 129 132 130
123 128 131 131 130 130 127 131 130 128 130 133 129 117 103 64 341 340 295 339 284 312 295 314 281 264 239 245 232 241 238 227 249 151 142 131 119 115 117 121 125 137 142
125 132 136 134 134 134 133 133 133 134 134 134 137 135 129 111 340 356 296 309 330 313 293 294 288 265 245 252 235 237 239 234 245 176 135 132 120 118 121 127 129 137 143
129 133 140 138 137 137 138 138 135 135 136 139 141 140 133 119 340 293 288 294 309 314 300 269 289 269 251 249 237 240 239 243 242 160 62 123 129 122 129 125 128 133 135
132 136 141 143 143 142 140 143 144 142 141 143 147 146 140 137 35 283 288 309 303 311 312 356 283 268 253 242 231 236 248 239 242 80 104 128 138 135 133 138 126 132 134
135 138 142 145 148 146 144 147 149 150 149 151 155 155 154 152 288 284 281 289 279 313 358 293 271 266 254 253 241 251 260 310 59 85 93 135 138 140 135 142 135 131 138
136 138 141 147 148 148 149 151 154 156 155 155 160 161 163 164 161 150 285 283 277 278 282 286 264 258 254 274 253 238 292 346 32 114 113 131 147 143 141 139 144 135 138
142 133 142 147 147 152 155 158 157 159 159 162 165 169 166 165 161 138 294 161 275 265 278 277 258 247 248 266 265 263 285 306 316 117 129 117 131 152 143 150 149 146 141
141 145 141 149 151 152 155 161 164 161 160 166 167 171 175 169 171 155 160 165 276 281 268 271 271 270 264 271 284 277 273 288 310 120 130 132 141 132 158 158 161 156 153
152 148 152 155 157 156 157 156 163 166 170 173 175 177 180 180 176 175 171 173 188 281 279 268 272 274 272 262 277 275 267 264 288 286 166 164 170 164 141 160 165 167 170
154 151 157 160 164 165 161 159 165 173 173 179 183 183 183 183 184 186 186 198 182 178 176 276 276 284 270 265 276 283 268 261 260 269 268 283 194 191 190 185 176 181 191
148 148 159 162 170 168 174 174 181 189 189 188 185 187 189 188 185 188 190 188 185 188 193 188 208 191 202 272 288 267 266 272 256 245 252 284 290 295 220 223 278 235 202
152 158 165 176 174 179 180 187 198 199 207 209 200 193 195 195 193 193 194 194 196 208 193 216 233 277 273 275 286 279 270 275 282 285 286 213 216 238 279 251 241 220 210
152 169 181 189 191 192 196 215 264 281 274 253 237 259 217 206 204 202 201 201 201 206 213 211 209 228 276 274 270 282 284 276 284 289 286 282 287 288 278 259 276 232 215
36 31 162 216 211 210 218 247 239 230 234 234 229 245 262 238 223 215 211 208 207 215 218 229 253 259 270 260 273 270 275 289 292 288 289 287 285 285 286 289 297 276 248
19 10 10 17 341 308 322 302 284 280 277 277 275 260 263 261 247 240 232 226 218 222 228 237 250 239 248 267 262 274 274 281 279 282 281 283 293 288 284 286 293 296 303
26 25 26 14 358 340 325 316 300 291 296 298 286 276 270 274 266 256 251 243 238 235 226 231 234 231 235 252 266 266 265 279 278 275 278 279 279 287 289 287 289 295 300